Weather History for Point Lay, AK

Change the Weather History Date:

Tuesday, January 1, 2013

  Actual Average Record
Temperature  
Mean Temperature -5 °F -  
Max Temperature -2 °F -7 °F 26 °F (2004)
Min Temperature -8 °F -16 °F -42 °F (2007)
Degree Days  
Heating Degree Days 70    
Moisture  
Dew Point -11 °F    
Average Humidity 80    
Maximum Humidity 84    
Minimum Humidity 79    
Precipitation  
Precipitation 0.00 in - - ()
Sea Level Pressure  
Sea Level Pressure 29.72 in    
Wind  
Wind Speed 35 mph (ENE)    
Max Wind Speed 40 mph    
Max Gust Speed 50 mph    
Averages and records for this station are not official NWS values.
T = Trace of Precipitation, MM = Missing Value Source: NWS Daily Summary

Daily Weather History Graph

Daily Weather History Graph

Search for Another Location

Airport:

Trip Planner

Search our weather history database for the weather conditions in past years. The results will help you decide how hot, cold, wet, or windy it might be!

Date:

Astronomy

Jan. 01, 2013 Rise Set
Actual Time 1:23 PM AKST 2:28 PM AKST
Civil Twilight 11:35 AM AKST 4:16 PM AKST
Nautical Twilight 9:54 AM AKST 5:57 PM AKST
Astronomical Twilight 8:36 AM AKST 7:15 PM AKST
Moon 10:50 PM AKST (1/1) 12:18 PM AKST (1/1)
Length of Visible Light 4h 41m
Length of Day
1h 04m
Waning Gibbous, 82% of the Moon is Illuminated
Jan 1
Waning Gibbous
Jan 4
Last Quarter
Jan 11
New
Jan 18
First Quarter
Jan 26
Full

Hourly Weather History & Observations

Time (AKST) Temp. Windchill Dew Point Humidity Pressure Visibility Wind Dir Wind Speed Gust Speed Precip Events Conditions
12:56 AM -4.9 °F -34.3 °F -9.9 °F 79% 29.86 in - ENE 35.7 mph 43.7 mph 0.00 in Snow Light Snow
1:56 AM -4.9 °F -34.3 °F -9.9 °F 79% 29.86 in - ENE 35.7 mph 41.4 mph 0.00 in Snow Light Snow
2:56 AM -4.9 °F -34.7 °F -9.9 °F 79% 29.84 in - ENE 36.8 mph 43.7 mph 0.00 in Snow Light Snow
3:56 AM -4.0 °F -33.8 °F -8.9 °F 80% 29.82 in - ENE 38.0 mph 46.0 mph 0.00 in Snow Light Snow
4:56 AM -4.0 °F -33.4 °F -8.0 °F 83% 29.81 in - ENE 36.8 mph 44.9 mph 0.00 in Snow Light Snow
5:56 AM -2.9 °F -32.9 °F -8.0 °F 79% 29.79 in - ENE 40.3 mph 44.9 mph 0.00 in Snow Light Snow
6:56 AM -2.9 °F -32.3 °F -8.0 °F 79% 29.79 in - ENE 38.0 mph 49.5 mph 0.00 in Snow Light Snow
7:56 AM -4.0 °F -34.4 °F -8.0 °F 83% 29.76 in - ENE 40.3 mph 48.3 mph 0.00 in Snow Light Snow
8:56 AM -4.9 °F -35.0 °F -8.9 °F 83% 29.77 in - ENE 38.0 mph 46.0 mph 0.00 in Snow Light Snow
9:56 AM -6.0 °F -35.8 °F -9.9 °F 83% 29.75 in - ENE 35.7 mph 43.7 mph 0.00 in Snow Light Snow
10:56 AM -6.9 °F -37.1 °F -11.9 °F 79% 29.74 in - ENE 35.7 mph 49.5 mph 0.00 in Snow Light Snow
11:56 AM -8.0 °F -37.8 °F -11.9 °F 83% 29.74 in - ENE 33.4 mph 41.4 mph 0.00 in Snow Light Snow
12:56 PM -8.0 °F -38.9 °F -13.0 °F 79% 29.71 in - ENE 36.8 mph 41.4 mph 0.00 in Snow Light Snow
1:56 PM -8.0 °F -38.2 °F -13.0 °F 79% 29.70 in - ENE 34.5 mph 40.3 mph 0.00 in Snow Light Snow
2:56 PM -8.0 °F -38.6 °F -13.0 °F 79% 29.70 in - ENE 35.7 mph 41.4 mph 0.00 in Snow Light Snow
3:56 PM -8.9 °F -39.8 °F -13.9 °F 79% 29.69 in - ENE 35.7 mph 42.6 mph 0.00 in Snow Light Snow
4:56 PM -8.0 °F -38.6 °F -13.0 °F 79% 29.68 in - ENE 35.7 mph 42.6 mph 0.00 in Snow Light Snow
5:56 PM -6.9 °F -35.6 °F -11.9 °F 79% 29.68 in - ENE 31.1 mph 40.3 mph 0.00 in Snow Light Snow
6:56 PM -6.9 °F -35.6 °F -11.9 °F 79% 29.65 in - ENE 31.1 mph 41.4 mph 0.00 in Snow Light Snow
7:56 PM -6.9 °F -33.9 °F -11.9 °F 79% 29.65 in - NE 26.5 mph - 0.00 in   Mostly Cloudy
8:56 PM -6.9 °F -33.4 °F -11.9 °F 79% 29.64 in - NE 25.3 mph - 0.00 in Snow Light Snow
9:56 PM -6.0 °F -33.1 °F -10.8 °F 79% 29.62 in - ENE 27.6 mph 35.7 mph 0.00 in Snow Light Snow
10:40 PM -5.8 °F -32.4 °F -9.4 °F 84% 29.62 in - ENE 26.5 mph - 0.00 in   Mostly Cloudy
10:56 PM -4.9 °F -32.5 °F -8.9 °F 83% 29.63 in - ENE 29.9 mph - 0.00 in Snow Light Snow
11:16 PM -5.8 °F -32.0 °F -9.4 °F 84% 29.61 in - ENE 25.3 mph 31.1 mph 0.00 in   Mostly Cloudy
11:38 PM -5.8 °F -32.0 °F -9.4 °F 84% 29.61 in - ENE 25.3 mph 31.1 mph 0.00 in   Clear
11:56 PM -4.9 °F -31.2 °F -9.9 °F 79% 29.62 in - ENE 26.5 mph 32.2 mph 0.00 in   Clear